Погода в Тбилиси

Погода в Тбилиси : погода сейчас, прогноз погоды и архив. Всё, что Вы хотите узнать о погоде в Тбилиси!

Поиск расширенной информации на нашем сайте:

Другие новости

Новости СМИ2

Главная страница сайта

Новости сайта

02.10.2013

Напоминаем, что на нашем новом сайте вы можете получить высокодетализированные прогнозы погоды по пунктам России, СНГ и мира (включающие важные для авиации метеовеличины, такие как направление и скорость ветра, видимость, явления погоды, количество и форма облачности, нижняя и верхняя граница облачности), а также ознакомиться с разнообразными материалами по авиационной метеорологии и подборкой полезных ссылок на эту тему.

Сайт Метеоцентр.Азия посвящён разработке технологий оптимизации авиаметеорологического обслуживания, включая проектирование и перспективное создание нескольких автоматизированных авиаметеорологических систем:
- система выпуска высокодетальных прогностических карт явлений погоды для нижнего воздушного пространства по России и ближнему зарубежью;
- система верификации прогнозов TAF (выпускаемых синоптиками официальных АМСГ РФ и ближнего зарубежья) и AUTOTAF (выпускаемых сайтом Метеоцентр.Азия) - выявление ошибок, онлайн-сопоставление с фактической погодой METAR, автоматическое внесение коррективов в прогнозы при резком отклонении фактической погоды от прогноза, подсчёт оправдываемости прогнозов по элементам и в целом;
- система обработки, анализа и отображения авиаметеорологической информации для применения провайдерами метеорологической информации.


Погода в Тбилиси - сегодня

Время (UTC), дата Ветер
(°,м/с) 
Видим.   Явления Облачность Т
(°С)
Тd
(°С)
f(%) Тe
(°С)
Pmin
(гПа)
dP
(гПа)
Po
(мм)
O2
(г/м3)
Тmin Tmax R s Состояние
почвы
09 18.01.17 140 (ЮВ) 2000 м  дымка  10/10 600 м 
[Ns]
+1.2 +1.2 100 -2  1027.7  -0.8  731  293           
12 18.01.17 140 (ЮВ) 2000 м  дымка  10/10 600 м 
[Ns]
+2.6 +1.2 90 1026.8  -0.7  731  291           
15 18.01.17 140 (ЮВ) н/о  дымка  10/10 600 м 
[Ns]
+2.6 +0.8 88 +1  1026.3  -0.5  730  291    +2.6       
18 18.01.17 140 (ЮВ) н/о  слаб. дождь  10/10 600 м 
[Ns]
+2.2 +1.4 94 +1  1028.2  1.8  732  292    +2.6       
21 18.01.17 тихо ()   н/о  дымка  10/10 600 м 
[Ns]
+2 +1.5 96 +2  1027  -1.1  731  292           
00 19.01.17 тихо ()   н/о  дымка  10/10 600 м 
[Ns]
+2 +1.2 94 +2  1026.6  -0.4  730  292           
03 19.01.17 тихо ()   н/о  слаб. дождь  10/10 600 м 
[Ns]
+1.2 +1.2 100 +1  1026.5  -0.3  730  293      0.0     
06 19.01.17 тихо ()   2000 м  слаб. дождь  10/10 600 м 
[Ns]
+1.2 +1.2 100 +1  1027.5  731  293      0.0     
09 19.01.17 тихо ()   4000 м  слаб. дождь  10/10 600 м 
[Ns]
+3.1 +2.3 94 +3  1027.2  -0.3  731  291           
12 19.01.17 тихо ()   4000 м  дымка{дождь}  10/10 600 м 
[Ns]
+3.9 +1.3 83 +4  1026.3  -0.3  731  290           
18 19.01.17 тихо ()   н/о    10/10 600 м 
[Ns]
+3 +1.4 89 +3  1027.4  0.4  731  291    +4  0.7     
21 19.01.17 160 (Ю) н/о    10/10 600 м 
[Ns]
+2.5 +2.2 98 +2  1027.9  0.2  731  292           
00 20.01.17 000 (С) н/о  слаб. дождь  10/10 600 м 
[Ns]
+1.5 +1.5 100 +2  1028.7  0.6  732  293           
03 20.01.17 160 (Ю) н/о  слаб. дождь  10/10 600 м 
[Ns]
+1.4 +1.4 100 +1  1028.6  -0.1  732  293         
06 20.01.17 160 (Ю) 2000 м  слаб. дождь  10/10 600 м 
[Ns]
+1.8 +1.8 100 +1  1029.1  0.7  732  293         
09 20.01.17 160 (Ю) 2000 м  дымка{дождь}  10/10 600 м 
[Ns]
+3.2 +2.7 97 +3  1028  -0.9  732  291           
12 20.01.17 тихо ()   2000 м  дымка{дождь}  10/10 600 м 
[Ns]
+3.8 +1.2 83 +4  1026.7  -1  731  290           
18 20.01.17 тихо ()   н/о  дымка  10/10 600 м 
[Ns]
+2.8 +2.5 98 +3  1025.8  -0.2  730  291    +4  0.7     
21 20.01.17 тихо ()   н/о  дымка  10/10 600 м 
[Ns]
+2.6 +2.3 98 +3  1025.9  -0.1  730  291           
00 21.01.17 300 (СЗ) 1-1{02}  н/о    н/о 
[]
+2.5 -0.4 81 +3  1025.9  -0.7  730  291           
06 21.01.17 360 (С) 20000 м    9/9 600 м кучево-дожд. 
[Cb calv]
+3.5 -0.6 74 +1  1024.6  0.3  729  290           
09 21.01.17 360 (С) 20000 м    8/5 600 м средняя 
[Cu hum|Ac lent]
+6.2   1024.4  0.5  729             
12 21.01.17 340 (С) 12  20000 м    5/5 600 м 
[Cu hum]
+5.2 -1.6 61 +1  1023.3  -1.3  728  288           
15 21.01.17 320 (СЗ) н/о    3/3 600 м 
[Cu hum]
+2.4 -3.6 65 -1  1024.8  0.9  729  292    +6.6       
18 21.01.17 340 (С) н/о    4/4 600 м 
[Cu hum]
+2.2 -1.5 76 -2  1026  1.1  730  292    +6.6       
Время (UTC), дата Ветер
(°,м/с) 
Видим.   Явления Облачность Т
(°С)
Тd
(°С)
f(%) Тe
(°С)
Pmin
(гПа)
dP
(гПа)
Po
(мм)
O2
(г/м3)
Тmin Tmax R s Состояние
почвы

Для получения пояснительной информации подведите курсор к названию столбца.

ПОГОДА в Тбилиси - архив

Всё, что Вы хотите узнать о погоде в Тбилиси - удобно и подробно!

Выберите нужную дату (начиная с 1 января 2015* года) и нажмите кнопку "Найти".
Будут отображены архивные сводки погоды по пункту Тбилиси, начиная с указанной даты.


Отображать данные в формате CSV (для использования в таблицах Excel)


Внимание! Наш архив погоды предназначен исключительно для личного некоммерческого использования в познавательных целях. Если Вам необходимы официальные справки о состоянии погоды (для производственных, юридических, коммерческих и т.п. целей), обращайтесь в органы Росгидромета.

*Примечание: данная дата относится к архиву по метеостанциям СССР (Россия, СНГ, Балтия).
Архив по метеостанциям Зарубежной Европы и Азии (кроме Китая) хранится 10 дней, по другим регионам земного шара (Китай, Африка, Америка, Австралия, Океания) - 1 день.

Тбилиси - район местоположения метеостанции


Название, широта, долгота, высота метеостанции:
Тбилиси 41.7°ш. 44.8°д. 403 м над ур. моря [Грузия]

Дополнительная информация

В oтличие oт бoльшинства пoгoдных сайтoв мы публикуем пoдрoбную метеoинфoрмацию в детальнoм прoфессиoнальнoм фoрмате.

Характеристики температуры и влажнoсти вoздуха измеряются на высoте 2 м в тени вдали oт зданий и деревьев.
Скoрoсть ветра измеряется на высoте 10 м (на урoвне рoста челoвека скoрoсть ветра ниже в 1.5-2 раза). Если метеoстанция нахoдится в гoрoде или в лесу, тo скoрoсть ветра занижена на 2-4 м/с пo сравнению с oткрытым местoм. Скoрoсть ветра над акватoриями крупных рек и oзёр, а также на вершинах хoлмoв на 2-5 м/с выше, чем в oбычных услoвиях.
Атмoсфернoе давление в разных тoчках местнoсти мoжет значительнo oтличаться oт давления на метеoстанции, в зависимoсти oт услoвий рельефа (при пoдъёме на 10 м давление пoнижается примернo на 1 мм рт.ст.).